• In Hungary
  • List of Countries
  • For 7 days
  • Water Temperature
  • Satellite Maps
  • Weather Map
  • News
  • Weather Widgets
  • user-avatar
    Login

    Hourly Weather Volyncevo

    Today, 16 July, Monday

    Time Temperature Precipitation Wind Pressure Humidity
    00:00 +20°C° 0.1 mm 1 mps 744 mmHg 95%
    01:00 +18°C° 0.1 mm 2 mps 745 mmHg 96%
    02:00 +19°C° 0 mm 1 mps 745 mmHg 96%
    03:00 +18°C° 0 mm 2 mps 745 mmHg 96%
    04:00 +18°C° 0 mm 2 mps 745 mmHg 96%
    05:00 +19°C° 0 mm 2 mps 745 mmHg 96%
    06:00 +20°C° 0 mm 2 mps 745 mmHg 90%
    07:00 +22°C° 0 mm 3 mps 745 mmHg 85%
    08:00 +25°C° 0 mm 3 mps 745 mmHg 79%
    09:00 +26°C° 0.6 mm 3 mps 745 mmHg 76%
    10:00 +26°C° 0.6 mm 3 mps 745 mmHg 73%
    11:00 +27°C° 0.6 mm 3 mps 745 mmHg 70%
    12:00 +28°C° 0.4 mm 4 mps 745 mmHg 66%
    13:00 +28°C° 0.4 mm 4 mps 744 mmHg 65%
    14:00 +28°C° 0 mm 3 mps 745 mmHg 68%
    15:00 +28°C° 0.1 mm 3 mps 745 mmHg 68%
    16:00 +28°C° 0.1 mm 3 mps 744 mmHg 68%
    17:00 +28°C° 0.1 mm 3 mps 744 mmHg 68%
    18:00 +26°C° 0.2 mm 3 mps 744 mmHg 75%
    19:00 +24°C° 0.2 mm 3 mps 744 mmHg 82%
    20:00 +23°C° 0.2 mm 2 mps 744 mmHg 88%
    21:00 +21°C° 0.1 mm 3 mps 744 mmHg 90%
    22:00 +20°C° 0.1 mm 3 mps 744 mmHg 92%
    23:00 +20°C° 0.1 mm 3 mps 744 mmHg 95%

    Tomorrow, 17 July, Tuesday

    Time Temperature Precipitation Wind Pressure Humidity
    00:00 +19°C° 0 mm 3 mps 744 mmHg 95%
    01:00 +19°C° 0 mm 3 mps 744 mmHg 96%
    02:00 +19°C° 0 mm 3 mps 744 mmHg 96%
    03:00 +19°C° 0 mm 3 mps 744 mmHg 95%
    04:00 +19°C° 0 mm 3 mps 744 mmHg 95%
    05:00 +19°C° 0 mm 3 mps 744 mmHg 94%
    06:00 +21°C° 0 mm 4 mps 744 mmHg 88%
    07:00 +22°C° 0 mm 4 mps 744 mmHg 82%
    08:00 +25°C° 0 mm 5 mps 744 mmHg 76%
    09:00 +26°C° 0 mm 5 mps 744 mmHg 71%
    10:00 +27°C° 0 mm 5 mps 743 mmHg 66%
    11:00 +28°C° 0 mm 6 mps 743 mmHg 61%
    12:00 +28°C° 0 mm 6 mps 743 mmHg 60%
    13:00 +29°C° 0 mm 6 mps 743 mmHg 59%
    14:00 +29°C° 0 mm 6 mps 742 mmHg 58%
    15:00 +28°C° 0 mm 6 mps 742 mmHg 60%
    16:00 +28°C° 0 mm 6 mps 742 mmHg 62%
    17:00 +27°C° 0 mm 5 mps 742 mmHg 64%
    18:00 +26°C° 0 mm 5 mps 742 mmHg 68%
    19:00 +25°C° 0 mm 4 mps 742 mmHg 73%
    20:00 +22°C° 0 mm 3 mps 742 mmHg 78%
    21:00 +22°C° 0 mm 3 mps 742 mmHg 77%
    22:00 +21°C° 0 mm 3 mps 742 mmHg 77%
    23:00 +21°C° 0 mm 3 mps 742 mmHg 77%

    Day after tomorrow, 18 July, Wednesday

    Time Temperature Precipitation Wind Pressure Humidity
    00:00 +20°C° 0 mm 4 mps 742 mmHg 79%
    01:00 +20°C° 0 mm 4 mps 741 mmHg 82%
    02:00 +20°C° 0 mm 4 mps 741 mmHg 84%
    03:00 +19°C° 0.5 mm 4 mps 741 mmHg 87%
    04:00 +19°C° 0.5 mm 4 mps 741 mmHg 91%
    05:00 +19°C° 0.5 mm 4 mps 741 mmHg 94%
    06:00 +20°C° 0.2 mm 4 mps 741 mmHg 93%
    07:00 +20°C° 0.2 mm 4 mps 741 mmHg 92%
    08:00 +20°C° 0.2 mm 5 mps 741 mmHg 91%
    09:00 +21°C° 0.2 mm 5 mps 741 mmHg 87%
    10:00 +22°C° 0.2 mm 5 mps 741 mmHg 83%
    11:00 +23°C° 0.2 mm 5 mps 741 mmHg 79%
    12:00 +23°C° 0.6 mm 5 mps 741 mmHg 78%
    13:00 +25°C° 0.6 mm 5 mps 741 mmHg 77%
    14:00 +26°C° 0.6 mm 5 mps 741 mmHg 76%
    15:00 +25°C° 0.4 mm 5 mps 741 mmHg 77%
    16:00 +25°C° 0.4 mm 5 mps 740 mmHg 78%
    17:00 +25°C° 0.4 mm 4 mps 740 mmHg 79%
    18:00 +23°C° 0.2 mm 4 mps 740 mmHg 83%
    19:00 +21°C° 0.2 mm 4 mps 740 mmHg 87%
    20:00 +20°C° 0.2 mm 3 mps 740 mmHg 90%
    21:00 +20°C° 0 mm 3 mps 740 mmHg 91%
    22:00 +19°C° 0 mm 3 mps 740 mmHg 93%
    23:00 +19°C° 0 mm 3 mps 740 mmHg 94%

    19 July, Thursday

    Time Temperature Precipitation Wind Pressure Humidity
    00:00 +19°C° 0 mm 3 mps 740 mmHg 94%
    01:00 +19°C° 0 mm 3 mps 740 mmHg 95%
    02:00 +19°C° 0 mm 3 mps 740 mmHg 95%
    03:00 +19°C° 0.2 mm 3 mps 740 mmHg 96%
    04:00 +19°C° 0.2 mm 4 mps 740 mmHg 96%
    05:00 +19°C° 0.2 mm 4 mps 740 mmHg 96%
    06:00 +19°C° 0.2 mm 4 mps 740 mmHg 95%
    07:00 +19°C° 0.2 mm 4 mps 740 mmHg 95%
    08:00 +20°C° 0.2 mm 5 mps 740 mmHg 94%
    09:00 +20°C° 0.2 mm 5 mps 740 mmHg 92%
    10:00 +20°C° 0.2 mm 5 mps 740 mmHg 90%
    11:00 +21°C° 0.2 mm 5 mps 740 mmHg 89%
    12:00 +21°C° 0.6 mm 5 mps 740 mmHg 89%
    13:00 +21°C° 0.6 mm 5 mps 740 mmHg 90%
    14:00 +21°C° 0.6 mm 5 mps 740 mmHg 90%
    15:00 +21°C° 0.7 mm 5 mps 740 mmHg 91%
    16:00 +21°C° 0.7 mm 5 mps 740 mmHg 92%
    17:00 +21°C° 0.7 mm 5 mps 740 mmHg 92%
    18:00 +21°C° 0.5 mm 4 mps 740 mmHg 93%
    19:00 +20°C° 0.5 mm 4 mps 739 mmHg 94%
    20:00 +20°C° 0.5 mm 4 mps 739 mmHg 95%
    21:00 +20°C° 0.6 mm 4 mps 739 mmHg 96%
    22:00 +20°C° 0.6 mm 4 mps 739 mmHg 97%
    23:00 +19°C° 0.6 mm 3 mps 739 mmHg 97%

    20 July, Friday

    Time Temperature Precipitation Wind Pressure Humidity
    00:00 +19°C° 0 mm 3 mps 739 mmHg 98%
    01:00 +19°C° 0 mm 3 mps 739 mmHg 98%
    02:00 +19°C° 0 mm 3 mps 739 mmHg 98%
    03:00 +19°C° 0.1 mm 3 mps 739 mmHg 98%
    04:00 +19°C° 0.1 mm 3 mps 739 mmHg 98%
    05:00 +19°C° 0.1 mm 3 mps 740 mmHg 98%
    06:00 +20°C° 0 mm 3 mps 740 mmHg 97%
    07:00 +20°C° 0 mm 3 mps 740 mmHg 96%
    08:00 +20°C° 0 mm 3 mps 740 mmHg 95%
    09:00 +21°C° 0.1 mm 3 mps 740 mmHg 94%
    10:00 +21°C° 0.1 mm 3 mps 740 mmHg 93%
    11:00 +22°C° 0.1 mm 3 mps 740 mmHg 92%
    12:00 +22°C° 0.4 mm 3 mps 740 mmHg 90%
    13:00 +24°C° 0.4 mm 3 mps 740 mmHg 88%
    14:00 +25°C° 0.4 mm 4 mps 740 mmHg 86%
    15:00 +25°C° 0.5 mm 4 mps 740 mmHg 85%
    16:00 +25°C° 0.5 mm 4 mps 740 mmHg 84%
    17:00 +25°C° 0.5 mm 4 mps 740 mmHg 83%
    18:00 +24°C° 0.1 mm 3 mps 739 mmHg 87%
    19:00 +22°C° 0.1 mm 3 mps 739 mmHg 90%
    20:00 +21°C° 0.1 mm 2 mps 739 mmHg 94%
    21:00 +21°C° 0.7 mm 2 mps 739 mmHg 95%
    22:00 +20°C° 0.7 mm 2 mps 739 mmHg 96%
    23:00 +19°C° 0.7 mm 2 mps 739 mmHg 98%

    21 July, Saturday

    Time Temperature Precipitation Wind Pressure Humidity
    00:00 +19°C° 0.1 mm 2 mps 738 mmHg 98%
    01:00 +19°C° 0.1 mm 2 mps 738 mmHg 98%
    02:00 +18°C° 0.1 mm 2 mps 738 mmHg 98%
    03:00 +19°C° 0.1 mm 2 mps 739 mmHg 98%
    04:00 +19°C° 0.1 mm 2 mps 739 mmHg 98%
    05:00 +19°C° 0.1 mm 2 mps 739 mmHg 97%
    06:00 +20°C° 0.2 mm 2 mps 739 mmHg 95%
    07:00 +21°C° 0.2 mm 2 mps 739 mmHg 93%
    08:00 +23°C° 0.2 mm 2 mps 739 mmHg 91%
    09:00 +24°C° 0.5 mm 2 mps 739 mmHg 87%
    10:00 +25°C° 0.5 mm 2 mps 739 mmHg 84%
    11:00 +26°C° 0.5 mm 2 mps 739 mmHg 81%
    12:00 +27°C° 1.1 mm 2 mps 739 mmHg 79%
    13:00 +27°C° 1.1 mm 2 mps 739 mmHg 77%
    14:00 +28°C° 1.1 mm 2 mps 738 mmHg 74%
    15:00 +27°C° 1.4 mm 2 mps 738 mmHg 79%
    16:00 +27°C° 1.4 mm 1 mps 738 mmHg 83%
    17:00 +26°C° 1.4 mm 1 mps 738 mmHg 87%
    18:00 +25°C° 0.1 mm 1 mps 738 mmHg 90%
    19:00 +24°C° 0.1 mm 1 mps 738 mmHg 92%
    20:00 +23°C° 0.1 mm 1 mps 738 mmHg 95%
    21:00 +22°C° 0.1 mm 1 mps 739 mmHg 96%
    22:00 +22°C° 0.1 mm 1 mps 739 mmHg 96%
    23:00 +21°C° 0.1 mm 1 mps 739 mmHg 97%
    Show more